Погода в Баканасе

Хотите узнать прогноз погоды в Баканасе? Тогда Вам сюда: Погода в Баканасе

Поиск расширенной информации на нашем сайте:

Полезная информация:

Новости сайта



02.01.2020
Опубликован Долгосрочный прогноз погоды по городам России и ближнего зарубежья на январь 2020 года.
Карты: Прогноз на январь и февраль 2020 года, Сравнение прогнозируемой аномалии приземной температуры воздуха на январь 2020 года по разным моделям.




Погода в Баканасе - сегодня

Время (UTC), дата Ветер
(°,м/с) 
Видим.   Явления Облачность Т
(°С)
Тd
(°С)
f(%) Тe
(°С)
Pmin
(гПа)
dP
(гПа)
Po
(мм)
O2
(г/м3)
Тmin Tmax R s Состояние
почвы
12 22.10.21 290 (З) 20000 м    8/5 600 м кучево-дожд., верхняя 
[Cb cap|Ci sp]
+7 -2.5 51 +7  1034.6  1.5  740  291           
15 22.10.21 230 (ЮЗ) н/о    4/3 600 м кучево-дожд., верхняя 
[Cb cap|Ci sp]
+2.8 +0.1 82 +4  1037.3  1.8  741  296    +7.7       
18 22.10.21 130 (ЮВ) н/о  дымка  3/3 600 м кучево-дожд., верхняя 
[Cb cap|Ci sp]
+1.5 +0.2 91 +1  1038.4  0.8  742  297    +7.7       
21 22.10.21 140 (ЮВ) н/о  дымка  4/3 600 м кучево-дожд., верхняя 
[Cb cap|Ci sp]
+1.2 -0.8 86 1038.4  742  298           
00 23.10.21 140 (ЮВ) 2{09}  н/о  дымка  3/0 верхняя 
[Ci sp]
+0.1 -1.1 92 -1  1038.8  0.2  742  299           
03 23.10.21 120 (ЮВ) 4000 м  дымка  9/9 600 м 
[Sc]
+2.4 +0.3 86 +2  1039.2  0.8  742  296           
06 23.10.21 180 (Ю) 20000 м    9/9 600 м 
[Sc]
+9 +0.6 56 +8  1037.4  -0.7  742  289  +0         
09 23.10.21 220 (ЮЗ) 20000 м    5/3 600 м кучево-дожд., верхняя 
[Cb calv|Ci sp]
+11.2 -4.5 33 +11  1034.8  -2  740  287           
12 23.10.21 180 (Ю) 20000 м    6/3 600 м кучево-дожд., средняя, верхняя 
[Cb cap|Ac trans|Ci sp]
+9.2 +0.9 56 +9  1035  -0.2  740  288           
15 23.10.21 130 (ЮВ) н/о    6/0 верхняя 
[Ci sp]
+5 +0.9 75 +6  1036.3  0.6  741  293    +11.4       
18 23.10.21 110 (В) н/о    4/0 верхняя 
[Ci sp]
+3.4 +0.8 83 +3  1035.7  -0.8  740  294    +11.4       
21 23.10.21 тихо ()   н/о  дымка  3/0 верхняя 
[Ci sp]
-0.2 -2 88 -0  1035.5  -0.9  739  298           
00 24.10.21 040 (СВ) 1{08}  н/о  дымка  ясно 
-1.6 -2.8 92 -1  1034.8  -0.9  739  300           
03 24.10.21 тихо ()   4000 м  дымка  ясно 
+0.6 -1.4 86 +1  1034.2  -0.2  739  297           
06 24.10.21 040 (СВ) 20000 м    ясно 
+11.4 -3.7 35 +11  1030.5  -1.8  737  286  -2         
09 24.10.21 040 (СВ) 20000 м    ясно 
+14.3 -4.4 27 +14  1026.8  -3  735  282           
12 24.10.21 040 (СВ) 20000 м    ясно 
+12.4 -4.7 30 +13  1025.8  -1.3  734  283           
15 24.10.21 040 (СВ) н/о    ясно 
+5.9 -3.7 50 +6  1025.7  -1.1  733  290    +14.6       
18 24.10.21 040 (СВ) н/о    ясно 
+3.4 -1.6 70 +2  1024.1  -2  732  291    +14.6       
21 24.10.21 040 (СВ) н/о    ясно 
+1.6 -1.2 82 1022.3  -1.9  730  293           
00 25.10.21 тихо () {11}  н/о  дымка  ясно 
-1.4 -2.3 94 -1  1021.5  -1.3  729  296           
03 25.10.21 тихо ()   20000 м    ясно 
+2.2 -1.7 75 +2  1020.4  -0.5  729  291           
06 25.10.21 320 (СЗ) 20000 м    ясно 
+8.3 +0.7 59 +8  1019  -0.2  729  285  -1.5         
09 25.10.21 310 (СЗ) 20000 м    ясно 
+13.2 +1.2 44 +14  1017  -1.2  728  280           
12 25.10.21 тихо ()   20000 м    ясно 
+12 +2.5 52 +12  1017.1  -0.1  728  280           
Время (UTC), дата Ветер
(°,м/с) 
Видим.   Явления Облачность Т
(°С)
Тd
(°С)
f(%) Тe
(°С)
Pmin
(гПа)
dP
(гПа)
Po
(мм)
O2
(г/м3)
Тmin Tmax R s Состояние
почвы

Для получения пояснительной информации подведите курсор к названию столбца.

ПОГОДА в Баканасе - архив

Всё, что Вы хотите узнать о погоде в Баканасе - удобно и подробно!

Выберите нужную дату (начиная с 1 января 2019* года) и нажмите кнопку "Найти".
Будут отображены архивные сводки погоды по пункту Баканас, начиная с указанной даты.


Отображать данные в формате CSV (для использования в таблицах Excel)


Внимание! Наш архив погоды предназначен исключительно для личного некоммерческого использования в познавательных целях. Если Вам необходимы официальные справки о состоянии погоды (для производственных, юридических, коммерческих и т.п. целей), обращайтесь в органы Росгидромета.

*Примечание: данная дата относится к архиву по метеостанциям СССР (Россия, СНГ, Балтия).
Архив по метеостанциям Зарубежной Европы и Азии (кроме Китая) хранится 10 дней, по другим регионам земного шара (Китай, Африка, Америка, Австралия, Океания) - 1 день.

Баканас - район местоположения метеостанции


Название, широта, долгота, высота метеостанции:
Баканас 44.8°ш. 76.3°д. 396 м над ур. моря [Казахстан]

Дополнительная информация

В oтличие oт бoльшинства пoгoдных сайтoв мы публикуем пoдрoбную метеoинфoрмацию в детальнoм прoфессиoнальнoм фoрмате.

Характеристики температуры и влажнoсти вoздуха измеряются на высoте 2 м в тени вдали oт зданий и деревьев.
Скoрoсть ветра измеряется на высoте 10 м (на урoвне рoста челoвека скoрoсть ветра ниже в 1.5-2 раза). Если метеoстанция нахoдится в гoрoде или в лесу, тo скoрoсть ветра занижена на 2-4 м/с пo сравнению с oткрытым местoм. Скoрoсть ветра над акватoриями крупных рек и oзёр, а также на вершинах хoлмoв на 2-5 м/с выше, чем в oбычных услoвиях.
Атмoсфернoе давление в разных тoчках местнoсти мoжет значительнo oтличаться oт давления на метеoстанции, в зависимoсти oт услoвий рельефа (при пoдъёме на 10 м давление пoнижается примернo на 1 мм рт.ст.).